User: anonymous   Login
Location: Ostrava
(49.8330°N, 18.2830°E)
Time: 04:20:08
(UTC+02:00)
Language:

Iridium 7 - Orbit

View from above orbital plane
View from above orbital plane
View from above satellite
View from above satellite

Ground track
Ground track

The orbit data is extracted from the following two-line orbital elements,

1 24793U 97020B   16147.43359941  .00000105  00000-0  30396-4 0  9991
2 24793  86.3954 120.6517 0002284  86.5164 273.6293 14.34215696997761
Epoch (UTC): 26 May 2016 10:24:22
Eccentricity: 0.0002284
inclination: 86.3954°
perigee height: 776 km
apogee height: 779 km
right ascension of ascending node: 120.6517°
argument of perigee: 86.5164°
revolutions per day: 14.34215696
mean anomaly at epoch: 273.6293°
orbit number at epoch: 99776

The dashed part of the orbit path shows where the satellite is in the earth's shadow,  

DLR